TimePDT,TemperatureF,Dew PointF,Humidity,Sea Level PressureIn,VisibilityMPH,Wind Direction,Wind SpeedMPH,Gust SpeedMPH,PrecipitationIn,Events,Conditions,WindDirDegrees,DateUTC
12:53 AM,54.0,41.0,62,29.91,10.0,SW,10.4,-,N/A,,Clear,230,2011-04-07 07:53:00
1:53 AM,53.1,42.1,66,29.88,10.0,WSW,12.7,-,N/A,,Clear,240,2011-04-07 08:53:00
2:53 AM,50.0,43.0,77,29.88,10.0,WSW,13.8,-,N/A,,Clear,250,2011-04-07 09:53:00
3:53 AM,48.0,44.1,86,29.87,8.0,West,11.5,-,N/A,,Clear,270,2011-04-07 10:53:00
4:53 AM,46.9,42.1,83,29.86,8.0,West,12.7,-,N/A,,Clear,270,2011-04-07 11:53:00
5:53 AM,48.0,30.9,52,29.86,10.0,WNW,20.7,28.8,N/A,,Scattered Clouds,290,2011-04-07 12:53:00
6:53 AM,48.0,27.0,44,29.85,10.0,WNW,21.9,-,N/A,,Mostly Cloudy,290,2011-04-07 13:53:00
7:53 AM,50.0,33.1,52,29.85,10.0,West,15.0,-,N/A,,Mostly Cloudy,280,2011-04-07 14:53:00
8:53 AM,54.0,42.1,64,29.82,10.0,SW,24.2,31.1,N/A,,Mostly Cloudy,230,2011-04-07 15:53:00
9:53 AM,57.0,39.0,51,29.81,10.0,SW,24.2,33.4,N/A,,Partly Cloudy,230,2011-04-07 16:53:00
10:53 AM,57.0,37.9,49,29.80,10.0,SW,21.9,29.9,N/A,,Scattered Clouds,220,2011-04-07 17:53:00
11:53 AM,59.0,39.9,49,29.79,10.0,SSW,23.0,33.4,N/A,,Partly Cloudy,210,2011-04-07 18:53:00
12:53 PM,57.9,37.9,47,29.77,10.0,SW,27.6,34.5,N/A,,Scattered Clouds,220,2011-04-07 19:53:00
1:53 PM,57.9,37.0,46,29.74,10.0,SW,24.2,34.5,N/A,,Mostly Cloudy,230,2011-04-07 20:53:00
2:53 PM,55.9,35.1,45,29.71,10.0,SW,29.9,40.3,N/A,,Clear,220,2011-04-07 21:53:00
3:53 PM,54.0,34.0,47,29.70,10.0,SW,33.4,42.6,N/A,,Partly Cloudy,230,2011-04-07 22:53:00
4:53 PM,53.1,34.0,48,29.70,10.0,SW,29.9,48.3,N/A,,Partly Cloudy,230,2011-04-07 23:53:00
5:53 PM,50.0,34.0,54,29.70,10.0,SW,27.6,36.8,N/A,,Partly Cloudy,230,2011-04-08 00:53:00
6:53 PM,46.0,33.1,61,29.70,10.0,SW,26.5,35.7,0.00,,Clear,220,2011-04-08 01:53:00
7:53 PM,44.1,30.9,60,29.73,10.0,West,18.4,31.1,N/A,,Scattered Clouds,260,2011-04-08 02:53:00
8:53 PM,43.0,30.9,62,29.74,10.0,WSW,16.1,28.8,N/A,,Overcast,240,2011-04-08 03:53:00
9:53 PM,41.0,30.9,67,29.74,10.0,SW,19.6,-,N/A,,Scattered Clouds,220,2011-04-08 04:53:00
10:53 PM,39.9,30.9,70,29.74,10.0,WSW,11.5,21.9,N/A,,Partly Cloudy,240,2011-04-08 05:53:00
11:53 PM,39.0,30.9,73,29.75,10.0,WSW,10.4,-,N/A,,Mostly Cloudy,250,2011-04-08 06:53:00